Location: Stanford
(52.2833°N, 2.4333°W)
Time: 02:07:35
(UTC+00:00)

Cosmos 1340 - Pass Details

Date: 22 January 2021
Orbit: 500 x 504 km, 81.2° (Epoch: 28 February)

Event Time Altitude Azimuth Distance (km) Brightness Sun altitude
Rises 18:26:40 0° 164° (SSE) 2,587 6.2 -16.1°
Reaches altitude 10° 18:28:58 10° 152° (SSE) 1,708 5.2 -16.4°
Enters shadow 18:30:27 19° 135° (SE) 1,233 4.3 -16.7°
